EW0380 Weather Reports


Display with metric or nautical units.
time (UTC)temp
F
wind
direction
speed
MPH
gust
MPH
rain 1hr
in
rain 24hr
in
rain mn
in
humidity
%
barometer
mb
20260906102720 59 0.0 0.0 0.00 0.00 0.00 99 1016.5
20260906101720 59 0.0 0.0 0.00 0.00 0.00 99 1016.5
20260906100741 60 0.0 0.0 0.00 0.00 0.00 99 1016.2
20260906095720 60 0.0 0.0 0.00 0.00 0.00 99 1016.5
20260906094719 60 0.0 0.0 0.00 0.00 0.00 99 1016.5
20260906093732 59 0.0 0.0 0.00 0.00 0.00 99 1016.2
20260906092720 59 0.0 0.0 0.00 0.00 0.00 99 1016.2
20260906091721 58 0.0 0.0 0.00 0.00 0.00 99 1016.2
20260906090720 58 0.0 0.0 0.00 0.00 0.00 99 1016.2
20260906085720 58 0.0 0.0 0.00 0.00 0.00 99 1015.8
20260906084720 58 0.0 0.0 0.00 0.00 0.00 99 1016.1
20260906083720 57 0.0 0.0 0.00 0.00 0.00 99 1015.8
20260906082720 57 0.0 0.0 0.00 0.00 0.00 99 1015.8
20260906081720 58 0.0 0.0 0.00 0.00 0.00 99 1015.8
20260906080720 58 0.0 0.0 0.00 0.00 0.00 99 1015.8
20260906075720 57 0.0 0.0 0.00 0.00 0.00 99 1015.4
20260906074721 57 0.0 0.0 0.00 0.00 0.00 99 1015.8
20260906073720 58 0.0 0.0 0.00 0.00 0.00 99 1015.5
20260906072720 58 0.0 0.0 0.00 0.00 0.00 99 1015.8
20260906071720 58 0.0 0.0 0.00 0.00 0.00 99 1015.5
20260906070720 57 0.0 0.0 0.00 0.00 0.00 99 1015.5
20260906065720 57 0.0 0.0 0.00 0.00 0.00 99 1015.1
20260906064720 58 0.0 0.0 0.00 0.00 0.00 99
20260906063720 58 0.0 0.0 0.00 0.00 0.00 99
20260906062720 58 0.0 0.0 0.00 0.00 0.00 99
20260906061720 58 18 0.0 2.0 0.00 0.00 0.00 99 1015.5
20260906060720 58 0.0 0.0 0.00 0.00 0.00 99 1015.2
20260906055720 57 0.0 0.0 0.00 0.00 0.00 99 1015.5
20260906054720 58 0.0 0.0 0.00 0.00 0.00 99 1015.8
20260906053720 58 0.0 0.0 0.00 0.00 0.00 99 1015.5
20260906052720 58 0.0 0.0 0.00 0.00 0.00 99 1015.5
20260906051741 58 0.0 0.0 0.00 0.00 0.00 99 1015.5
20260906050720 59 0.0 0.0 0.00 0.00 0.00 99 1015.9
20260906045720 59 0.0 0.0 0.00 0.00 0.00 99 1015.2
20260906044801 59 0.0 0.0 0.00 0.00 0.00 99 1015.2
20260906043720 59 0.0 0.0 0.00 0.00 0.00 99 1015.5
20260906042720 59 0.0 0.0 0.00 0.00 0.00 99 1015.5
20260906041720 59 0.0 0.0 0.00 0.00 0.00 99 1015.5
20260906040720 60 0.0 0.0 0.00 0.00 0.00 99 1015.5
20260906035720 60 0.0 0.0 0.00 0.00 0.00 99 1015.5
20260906034720 59 0.0 0.0 0.00 0.00 0.00 99 1015.1
20260906033720 60 0.0 0.0 0.00 0.00 0.00 99 1015.5
20260906032741 60 0.0 0.0 0.00 0.00 0.00 99 1015.5
20260906031720 60 0.0 0.0 0.00 0.00 0.00 99 1015.5
20260906030720 60 0.0 0.0 0.00 0.00 0.00 99 1015.1
20260906025720 60 0.0 0.0 0.00 0.00 0.00 99 1015.2
20260906024720 61 0.0 0.0 0.00 0.00 0.00 99 1015.2
20260906023719 61 0.0 0.0 0.00 0.00 0.00 99 1015.2
20260906022719 61 0.0 0.0 0.00 0.00 0.00 99 1015.2
20260906021720 61 0.0 0.0 0.00 0.00 0.00 99 1015.2
20260906020800 62 0.0 0.0 0.00 0.00 0.00 99 1015.2
20260906015720 62 0.0 0.0 0.00 0.00 0.00 99 1015.2
20260906014720 62 0.0 0.0 0.00 0.00 0.00 99 1015.1
20260906013719 62 0.0 0.0 0.00 0.00 0.00 99 1014.8
20260906012720 62 0.0 0.0 0.00 0.00 0.00 98 1015.1
20260906011719 62 0.0 0.0 0.00 0.00 0.00 99 1014.8
20260906010720 62 0.0 0.0 0.00 0.00 0.00 97 1014.7
20260906005719 63 0.0 0.0 0.00 0.00 0.00 96 1014.5
20260906004720 64 0.0 0.0 0.00 0.00 0.00 94 1014.5
20260906003719 64 0.0 0.0 0.00 0.00 0.00 91 1014.5
20260906002740 64 0.0 0.0 0.00 0.00 0.00 91 1014.5
20260906001720 64 0.0 0.0 0.00 0.00 0.00 90 1014.1
20260906000719 66 0.0 0.0 0.00 0.00 0.00 84 1014.2
20260905235740 67 0.0 0.0 0.00 0.00 0.00 80 1014.2
20260905234719 69 0.0 0.0 0.00 0.00 0.00 74 1014.3
20260905233739 71 0.0 0.0 0.00 0.00 0.00 70 1014.6
20260905232740 71 48 1.0 2.0 0.00 0.00 0.00 68 1014.3
20260905231720 72 46 3.0 5.0 0.00 0.00 0.00 66 1014.4
20260905230719 73 4 1.0 4.0 0.00 0.00 0.00 65 1014.4
20260905225720 73 11 1.0 2.0 0.00 0.00 0.00 64 1014.4
20260905224721 74 1 3.0 4.0 0.00 0.00 0.00 63 1014.4
20260905223739 74 356 3.0 6.0 0.00 0.00 0.00 62 1014.4
20260905222841 74 2 1.0 3.0 0.00 0.00 0.00 62 1014.4
20260905221720 75 10 4.0 6.0 0.00 0.00 0.00 60 1014.4
20260905220719 75 17 4.0 5.0 0.00 0.00 0.00 59 1014.1
20260905215720 75 8 6.0 8.0 0.00 0.00 0.00 56 1014.4
20260905214720 75 13 4.0 7.0 0.00 0.00 0.00 60 1014.4
20260905213719 76 16 3.0 8.0 0.00 0.00 0.00 56 1014.5
20260905212720 76 39 3.0 6.0 0.00 0.00 0.00 54 1014.1
20260905211720 76 17 4.0 6.0 0.00 0.00 0.00 55 1014.1
20260905210719 76 10 6.0 13.0 0.00 0.00 0.00 55 1014.1
20260905205720 76 355 6.0 8.0 0.00 0.00 0.00 55 1014.1
20260905204719 76 290 3.0 6.0 0.00 0.00 0.00 59 1014.1
20260905203720 76 7 2.0 2.0 0.00 0.00 0.00 58 1014.1
20260905202720 76 358 4.0 7.0 0.00 0.00 0.00 62 1014.5
20260905201720 76 24 4.0 6.0 0.00 0.00 0.00 62 1014.5
20260905200720 76 9 9.0 12.0 0.00 0.00 0.00 61 1014.1
20260905195719 76 27 5.0 7.0 0.00 0.00 0.00 60 1014.1
20260905194720 77 26 3.0 4.0 0.00 0.00 0.00 63 1014.5
20260905193720 76 23 5.0 12.0 0.00 0.00 0.00 63 1014.1
20260905192740 77 50 3.0 5.0 0.00 0.00 0.00 60 1014.5
20260905191719 77 350 7.0 11.0 0.00 0.00 0.00 61 1014.5
20260905190720 77 89 4.0 6.0 0.00 0.00 0.00 61 1014.5
20260905185719 76 340 7.0 9.0 0.00 0.00 0.00 64 1014.1
20260905184719 77 343 9.0 14.0 0.00 0.00 0.00 64 1014.5
20260905183719 77 355 6.0 9.0 0.00 0.00 0.00 62 1014.5
20260905182720 0 0.0 0.0 0.00 0.00 0.00
20260905181719 77 354 8.0 13.0 0.00 0.00 0.00 62 1014.5
20260905180719 77 20 5.0 7.0 0.00 0.00 0.00 66 1014.5
20260905175719 77 37 5.0 8.0 0.00 0.00 0.00 63 1014.5
20260905174719 77 357 8.0 13.0 0.00 0.00 0.00 67 1014.5
20260905173720 77 342 7.0 11.0 0.00 0.01 0.00 64 1014.5
20260905172720 77 356 8.0 11.0 0.00 0.01 0.00 70 1014.5
20260905171719 77 35 5.0 7.0 0.00 0.01 0.00 73 1014.9
20260905170720 76 21 6.0 9.0 0.00 0.01 0.00 69 1014.5
20260905165719 77 156 4.0 6.0 0.00 0.02 0.00 66 1015.2
20260905164719 76 341 5.0 7.0 0.00 0.02 0.00 71 1014.8
20260905163720 77 353 9.0 11.0 0.00 0.03 0.00 72 1015.2
20260905162720 75 355 5.0 6.0 0.00 0.04 0.00 74 1015.1
20260905161720 75 352 4.0 5.0 0.00 0.04 0.00 75 1015.1
20260905160752 76 17 4.0 5.0 0.00 0.04 0.00 75 1015.2
20260905155732 76 198 1.0 2.0 0.00 0.04 0.00 70 1015.2
20260905154719 75 356 4.0 4.0 0.00 0.07 0.00 78 1015.1
20260905153720 74 10 2.0 4.0 0.00 0.09 0.00 77 1015.1
20260905152720 74 11 5.0 7.0 0.00 0.12 0.00 78 1015.1
20260905151720 74 37 1.0 2.0 0.00 0.12 0.00 80 1014.5
20260905150719 74 9 5.0 7.0 0.00 0.12 0.00 80 1014.8
20260905145720 74 16 3.0 5.0 0.00 0.12 0.00 83 1014.8
20260905144719 74 352 2.0 6.0 0.00 0.12 0.00 80 1014.5
20260905143720 73 354 5.0 6.0 0.00 0.12 0.00 81 1014.5
20260905142720 73 21 2.0 4.0 0.00 0.12 0.00 81 1014.5
20260905141732 74 13 4.0 6.0 0.00 0.12 0.00 83 1014.5
20260905140720 74 31 2.0 4.0 0.00 0.12 0.00 83 1014.2
20260905135720 73 351 2.0 5.0 0.00 0.12 0.00 86 1014.1
20260905134821 72 349 3.0 5.0 0.00 0.12 0.00 90 1014.5
20260905133720 71 90 6.0 7.0 0.00 0.12 0.00 91 1014.4
20260905132740 71 17 4.0 5.0 0.00 0.12 0.00 95 1014.4
20260905131720 71 0.0 0.0 0.00 0.12 0.00 99 1014.4
20260905130720 70 0.0 0.0 0.00 0.12 0.00 99 1014.4
20260905125720 69 22 0.0 2.0 0.00 0.12 0.00 99 1014.4
20260905124720 69 0.0 0.0 0.00 0.12 0.00 99 1014.4
20260905123720 69 0.0 0.0 0.00 0.12 0.00 99 1014.1
20260905122720 69 0.0 0.0 0.00 0.12 0.00 99 1014.1
20260905121720 69 0.0 0.0 0.00 0.12 0.00 99 1014.1
20260905120720 69 0.0 0.0 0.00 0.12 0.00 99 1014.1
20260905115720 68 0.0 0.0 0.00 0.12 0.00 99 1014.1
20260905114720 68 0.0 0.0 0.00 0.12 0.00 99 1014.1
20260905113720 68 0.0 0.0 0.00 0.12 0.00 99 1014.4
20260905112740 67 0.0 0.0 0.00 0.12 0.00 99 1014.4
20260905111740 68 0.0 0.0 0.00 0.12 0.00 99 1014.4
20260905110720 68 0.0 0.0 0.00 0.12 0.00 99 1014.1
20260905105740 68 0.0 0.0 0.00 0.12 0.00 99 1014.1
20260905104740 68 0.0 0.0 0.00 0.12 0.00 99 1014.1
20260905103720 68 0.0 0.0 0.00 0.12 0.00 99 1014.5